BEIDOU-3 M6 (C22)

Last updated on Jan. 22, 2021, 6:27 a.m. UTC

1 43208U 18018B   21021.50529289 -.00000021  00000-0  00000-0 0  9995
2 43208  55.2571 129.0078 0007096 295.9950  63.9252  1.86231794 20002
UTC
Height (km)
Latitude
Longitude
Inclination
Orbital Period
UTC large
Height (km)
Speed (km/s)
/
Latitude / Longitude
Inclination (degrees)
Orbital Period (minutes)
Azimuth
Elevation
Range (km)
Doppler Factor
iOS Compass Heading
iOS Angle

Next 30 passes for location: Hong Kong

Rise time Rise Azimuth (degrees) Set time Set Azimuth (degrees) Duration Max altitude (degrees)

No matching passes for this satellites